WMT8133 LIRF-LFMN

Flight info

Callsign WMT8133
Flight time 0h 51m
Altitude 34000
Route XENOL5AXPODOX9E/25 PODOX DCT TOBGA DCT DOBIM/N0431F300 DCT AKUTI R16 KERIT
Aircraft A321/M-SDE1E2E3FGIJ1J4RWXY/LB1

Departure

Time 2026-05-06 08:28
Airport Rome–Fiumicino Leonardo da Vinci International Airport (LIRF)

Arrival

Time 2026-05-06 09:19
Airport Nice-Côte d'Azur Airport (LFMN)
Time Latitude Longitude Altitude Speed Heading
2026-05-06 07:41 41.79625 12.25942 16 ft 0 kts 295°
2026-05-06 08:16 41.79618 12.25964 15 ft 3 kts 295°
2026-05-06 08:16 41.79607 12.25990 15 ft 4 kts 323°
2026-05-06 08:17 41.79584 12.25998 15 ft 4 kts 16°
2026-05-06 08:17 41.79562 12.25986 15 ft 2 kts 25°
2026-05-06 08:17 41.79561 12.25985 16 ft 0 kts 25°
2026-05-06 08:21 41.79566 12.25988 15 ft 2 kts 25°
2026-05-06 08:21 41.79583 12.25999 15 ft 4 kts 25°
2026-05-06 08:21 41.79611 12.26017 16 ft 5 kts 25°
2026-05-06 08:22 41.79651 12.26042 15 ft 7 kts 25°
2026-05-06 08:22 41.79700 12.26073 16 ft 9 kts 25°
2026-05-06 08:22 41.79759 12.26075 16 ft 9 kts 318°
2026-05-06 08:22 41.79793 12.25990 15 ft 11 kts 296°
2026-05-06 08:23 41.79829 12.25889 15 ft 13 kts 295°
2026-05-06 08:23 41.79881 12.25829 14 ft 10 kts 13°
2026-05-06 08:23 41.79951 12.25872 15 ft 12 kts 25°
2026-05-06 08:23 41.80031 12.25921 14 ft 13 kts 25°
2026-05-06 08:24 41.80121 12.25977 14 ft 15 kts 25°
2026-05-06 08:24 41.80219 12.26037 14 ft 16 kts 25°
2026-05-06 08:24 41.80327 12.26104 14 ft 18 kts 25°
2026-05-06 08:24 41.80440 12.26170 16 ft 18 kts 16°
2026-05-06 08:25 41.80532 12.26255 16 ft 18 kts 69°
2026-05-06 08:25 41.80577 12.26416 16 ft 19 kts 70°
2026-05-06 08:25 41.80624 12.26589 16 ft 20 kts 70°
2026-05-06 08:25 41.80674 12.26771 15 ft 22 kts 70°
2026-05-06 08:26 41.80727 12.26963 14 ft 18 kts 70°
2026-05-06 08:26 41.80800 12.27043 13 ft 15 kts 354°
2026-05-06 08:26 41.80904 12.26994 13 ft 16 kts 341°
2026-05-06 08:26 41.80960 12.26942 13 ft 8 kts 275°
2026-05-06 08:27 41.80943 12.26869 14 ft 10 kts 249°
2026-05-06 08:27 41.80851 12.26542 17 ft 76 kts 249°
2026-05-06 08:27 41.80580 12.25556 16 ft 147 kts 249°
2026-05-06 08:27 41.80164 12.24071 257 ft 180 kts 246°
2026-05-06 08:28 41.79750 12.22514 1021 ft 179 kts 244°
2026-05-06 08:28 41.79321 12.20904 1545 ft 195 kts 251°
2026-05-06 08:28 41.79283 12.18959 1890 ft 222 kts 270°
2026-05-06 08:28 41.79361 12.16790 2134 ft 246 kts 264°
2026-05-06 08:29 41.79297 12.14441 2814 ft 255 kts 262°
2026-05-06 08:29 41.79196 12.12064 3736 ft 256 kts 263°
2026-05-06 08:29 41.79095 12.09681 4677 ft 256 kts 264°
2026-05-06 08:29 41.79036 12.07285 5598 ft 258 kts 266°
2026-05-06 08:30 41.79013 12.04882 6525 ft 258 kts 268°
2026-05-06 08:30 41.79007 12.02463 7341 ft 261 kts 267°
2026-05-06 08:30 41.79006 12.00023 8192 ft 263 kts 268°
2026-05-06 08:30 41.79004 11.97566 9044 ft 265 kts 268°
2026-05-06 08:31 41.79001 11.95125 9888 ft 266 kts 268°
2026-05-06 08:31 41.78995 11.92555 10382 ft 282 kts 268°
2026-05-06 08:31 41.78984 11.89820 10614 ft 304 kts 268°
2026-05-06 08:31 41.78973 11.86931 11136 ft 314 kts 268°
2026-05-06 08:32 41.78965 11.84032 11837 ft 318 kts 268°
2026-05-06 08:32 41.78956 11.81049 12568 ft 322 kts 268°
2026-05-06 08:32 41.78947 11.78034 13285 ft 326 kts 268°
2026-05-06 08:32 41.78938 11.74979 13972 ft 330 kts 268°
2026-05-06 08:33 41.78926 11.71890 14595 ft 333 kts 268°
2026-05-06 08:33 41.78909 11.68770 15232 ft 337 kts 268°
2026-05-06 08:33 41.78891 11.65614 15883 ft 340 kts 268°
2026-05-06 08:33 41.78873 11.62432 16542 ft 343 kts 268°
2026-05-06 08:34 41.78854 11.59214 17193 ft 347 kts 267°
2026-05-06 08:34 41.79031 11.52679 18426 ft 356 kts 274°
2026-05-06 08:34 41.79304 11.49366 18978 ft 359 kts 274°
2026-05-06 08:35 41.79576 11.46023 19538 ft 362 kts 274°
2026-05-06 08:35 41.79847 11.42656 20098 ft 365 kts 273°
2026-05-06 08:35 41.80124 11.39257 20667 ft 368 kts 274°
2026-05-06 08:35 41.80683 11.35878 21218 ft 376 kts 285°
2026-05-06 08:36 41.81759 11.32657 21780 ft 383 kts 296°
2026-05-06 08:36 41.83328 11.29723 22356 ft 391 kts 306°
2026-05-06 08:36 41.85088 11.26918 22896 ft 395 kts 305°
2026-05-06 08:36 41.86861 11.24083 23434 ft 398 kts 305°
2026-05-06 08:37 41.88645 11.21221 23870 ft 402 kts 305°
2026-05-06 08:37 41.90441 11.18331 24295 ft 404 kts 305°
2026-05-06 08:37 41.92244 11.15422 24724 ft 407 kts 305°
2026-05-06 08:37 41.94035 11.12531 25144 ft 409 kts 304°
2026-05-06 08:38 41.95860 11.09583 25561 ft 412 kts 304°
2026-05-06 08:38 41.97698 11.06617 25974 ft 414 kts 304°
2026-05-06 08:38 41.99545 11.03632 26371 ft 417 kts 304°
2026-05-06 08:38 42.01402 11.00624 26783 ft 419 kts 304°
2026-05-06 08:39 42.03268 10.97602 27188 ft 421 kts 304°
2026-05-06 08:39 42.05144 10.94557 27577 ft 424 kts 304°
2026-05-06 08:39 42.07030 10.91493 27968 ft 426 kts 304°
2026-05-06 08:39 42.08927 10.88412 28356 ft 429 kts 304°
2026-05-06 08:40 42.10838 10.85310 28744 ft 431 kts 304°
2026-05-06 08:40 42.12759 10.82189 29100 ft 434 kts 303°
2026-05-06 08:40 42.14688 10.79048 29462 ft 437 kts 303°
2026-05-06 08:40 42.16625 10.75881 29816 ft 439 kts 303°
2026-05-06 08:41 42.18573 10.72693 30147 ft 441 kts 303°
2026-05-06 08:41 42.20530 10.69491 30444 ft 444 kts 303°
2026-05-06 08:41 42.22496 10.66271 30749 ft 446 kts 303°
2026-05-06 08:41 42.24470 10.63033 31059 ft 448 kts 303°
2026-05-06 08:42 42.26451 10.59779 31363 ft 450 kts 303°
2026-05-06 08:42 42.28616 10.56687 31741 ft 457 kts 312°
2026-05-06 08:42 42.31041 10.53893 32156 ft 458 kts 314°
2026-05-06 08:42 42.33479 10.51120 32576 ft 457 kts 314°
2026-05-06 08:43 42.35908 10.48348 32993 ft 457 kts 313°
2026-05-06 08:43 42.38331 10.45574 33416 ft 456 kts 313°
2026-05-06 08:43 42.39928 10.43739 33672 ft 455 kts 313°
2026-05-06 08:43 42.42344 10.40958 33904 ft 456 kts 313°
2026-05-06 08:44 42.44739 10.38208 33941 ft 447 kts 313°
2026-05-06 08:44 42.49442 10.32799 33942 ft 442 kts 313°
2026-05-06 08:45 42.54106 10.27400 33934 ft 441 kts 313°
2026-05-06 08:45 42.58771 10.21998 33931 ft 441 kts 313°
2026-05-06 08:46 42.63434 10.16599 33926 ft 439 kts 313°
2026-05-06 08:46 42.68078 10.11212 33922 ft 439 kts 312°
2026-05-06 08:47 42.72722 10.05806 33924 ft 439 kts 312°
2026-05-06 08:47 42.77364 10.00394 33930 ft 440 kts 312°
2026-05-06 08:48 42.82011 9.94972 33938 ft 440 kts 312°
2026-05-06 08:48 42.86646 9.89532 33937 ft 440 kts 312°
2026-05-06 08:49 42.90772 9.83569 33935 ft 427 kts 299°
2026-05-06 08:49 42.94319 9.76967 33919 ft 434 kts 298°
2026-05-06 08:50 42.97153 9.69896 33304 ft 419 kts 288°
2026-05-06 08:50 42.98389 9.66295 31880 ft 418 kts 288°
2026-05-06 08:50 42.99610 9.62715 30734 ft 412 kts 288°
2026-05-06 08:50 43.00793 9.59261 30344 ft 388 kts 288°
2026-05-06 08:51 43.01920 9.55977 29948 ft 380 kts 287°
2026-05-06 08:51 43.03026 9.52721 29481 ft 375 kts 287°
2026-05-06 08:51 43.04113 9.49497 29080 ft 371 kts 287°
2026-05-06 08:51 43.05170 9.46350 28662 ft 367 kts 287°
2026-05-06 08:52 43.06233 9.43194 28251 ft 364 kts 287°
2026-05-06 08:52 43.07291 9.40062 27859 ft 361 kts 287°
2026-05-06 08:52 43.08341 9.36957 27482 ft 358 kts 287°
2026-05-06 08:52 43.09382 9.33875 27104 ft 355 kts 287°
2026-05-06 08:53 43.10410 9.30827 26735 ft 351 kts 287°
2026-05-06 08:53 43.11430 9.27807 26379 ft 348 kts 287°
2026-05-06 08:53 43.12438 9.24821 26018 ft 344 kts 287°
2026-05-06 08:53 43.13435 9.21864 25648 ft 340 kts 287°
2026-05-06 08:54 43.14421 9.18936 25290 ft 337 kts 287°
2026-05-06 08:54 43.15394 9.16034 24943 ft 335 kts 287°
2026-05-06 08:54 43.16360 9.13141 24588 ft 333 kts 287°
2026-05-06 08:54 43.17321 9.10261 24225 ft 332 kts 287°
2026-05-06 08:55 43.18278 9.07397 23890 ft 330 kts 287°
2026-05-06 08:55 43.19232 9.04541 23490 ft 328 kts 287°
2026-05-06 08:55 43.20177 9.01703 23075 ft 326 kts 287°
2026-05-06 08:55 43.21111 8.98894 22699 ft 322 kts 287°
2026-05-06 08:56 43.22037 8.96112 22292 ft 320 kts 287°
2026-05-06 08:56 43.22957 8.93351 21903 ft 317 kts 287°
2026-05-06 08:56 43.23868 8.90618 21499 ft 314 kts 287°
2026-05-06 08:56 43.24773 8.87896 21115 ft 312 kts 287°
2026-05-06 08:57 43.25656 8.85235 20735 ft 309 kts 287°
2026-05-06 08:57 43.26543 8.82563 20342 ft 307 kts 287°
2026-05-06 08:57 43.27425 8.79900 19958 ft 305 kts 287°
2026-05-06 08:57 43.28301 8.77256 19569 ft 303 kts 287°
2026-05-06 08:58 43.29171 8.74632 19182 ft 302 kts 287°
2026-05-06 08:58 43.30037 8.72013 18812 ft 300 kts 287°
2026-05-06 08:58 43.30898 8.69406 18424 ft 300 kts 286°
2026-05-06 08:58 43.31756 8.66806 18011 ft 298 kts 286°
2026-05-06 08:59 43.32608 8.64222 17607 ft 296 kts 287°
2026-05-06 08:59 43.33423 8.61648 17226 ft 290 kts 282°
2026-05-06 08:59 43.33892 8.59012 16862 ft 280 kts 271°
2026-05-06 08:59 43.33965 8.56364 16681 ft 284 kts 262°
2026-05-06 09:00 43.33750 8.53612 16488 ft 294 kts 259°
2026-05-06 09:00 43.33514 8.50811 16284 ft 296 kts 259°
2026-05-06 09:00 43.33280 8.47995 16073 ft 297 kts 259°
2026-05-06 09:00 43.33048 8.45186 15866 ft 296 kts 259°
2026-05-06 09:01 43.32814 8.42370 15657 ft 296 kts 260°
2026-05-06 09:01 43.32580 8.39562 15449 ft 296 kts 260°
2026-05-06 09:01 43.32344 8.36753 15229 ft 296 kts 260°
2026-05-06 09:01 43.32108 8.33954 15048 ft 295 kts 260°
2026-05-06 09:02 43.31872 8.31163 14830 ft 294 kts 260°
2026-05-06 09:02 43.31636 8.28370 14621 ft 294 kts 260°
2026-05-06 09:02 43.31400 8.25582 14422 ft 294 kts 260°
2026-05-06 09:02 43.31160 8.22799 14211 ft 294 kts 260°
2026-05-06 09:03 43.30917 8.20015 14007 ft 293 kts 260°
2026-05-06 09:03 43.30677 8.17237 13800 ft 293 kts 260°
2026-05-06 09:03 43.30438 8.14460 13577 ft 293 kts 261°
2026-05-06 09:03 43.30350 8.11665 13367 ft 295 kts 271°
2026-05-06 09:04 43.30778 8.08895 13150 ft 300 kts 285°
2026-05-06 09:04 43.31712 8.06316 12954 ft 304 kts 295°
2026-05-06 09:04 43.32752 8.03837 12743 ft 303 kts 295°
2026-05-06 09:04 43.33794 8.01331 12525 ft 302 kts 295°
2026-05-06 09:05 43.34828 7.98832 12309 ft 301 kts 295°
2026-05-06 09:05 43.35857 7.96332 12119 ft 300 kts 295°
2026-05-06 09:05 43.36882 7.93841 11898 ft 299 kts 295°
2026-05-06 09:05 43.37905 7.91359 11687 ft 298 kts 295°
2026-05-06 09:06 43.38922 7.88882 11482 ft 297 kts 295°
2026-05-06 09:06 43.39938 7.86410 11276 ft 296 kts 295°
2026-05-06 09:06 43.40952 7.83945 11062 ft 295 kts 295°
2026-05-06 09:06 43.41952 7.81492 10867 ft 293 kts 292°
2026-05-06 09:07 43.42492 7.78865 10546 ft 282 kts 269°
2026-05-06 09:07 43.42419 7.76194 10225 ft 277 kts 263°
2026-05-06 09:07 43.42258 7.73585 9977 ft 271 kts 262°
2026-05-06 09:07 43.42092 7.71029 9738 ft 266 kts 262°
2026-05-06 09:08 43.41927 7.68498 9467 ft 265 kts 262°
2026-05-06 09:08 43.41760 7.65979 9208 ft 264 kts 262°
2026-05-06 09:08 43.41587 7.63469 8950 ft 263 kts 262°
2026-05-06 09:08 43.41408 7.60965 8690 ft 262 kts 262°
2026-05-06 09:09 43.41226 7.58475 8437 ft 261 kts 263°
2026-05-06 09:09 43.41032 7.55998 8177 ft 261 kts 262°
2026-05-06 09:09 43.40825 7.53522 7925 ft 260 kts 262°
2026-05-06 09:09 43.40611 7.51057 7671 ft 259 kts 262°
2026-05-06 09:10 43.40390 7.48606 7420 ft 258 kts 262°
2026-05-06 09:10 43.40163 7.46160 7172 ft 257 kts 262°
2026-05-06 09:10 43.39932 7.43725 6928 ft 257 kts 262°
2026-05-06 09:10 43.39698 7.41298 6680 ft 256 kts 262°
2026-05-06 09:11 43.39461 7.38880 6435 ft 255 kts 262°
2026-05-06 09:11 43.39214 7.36466 6175 ft 253 kts 262°
2026-05-06 09:11 43.38981 7.34077 5916 ft 252 kts 262°
2026-05-06 09:11 43.38795 7.31690 5656 ft 252 kts 271°
2026-05-06 09:12 43.39272 7.29396 5403 ft 254 kts 300°
2026-05-06 09:12 43.40539 7.27707 5161 ft 260 kts 328°
2026-05-06 09:12 43.42296 7.27086 5019 ft 267 kts 357°
2026-05-06 09:12 43.44112 7.27661 4686 ft 272 kts 21°
2026-05-06 09:13 43.45837 7.28751 4297 ft 273 kts 21°
2026-05-06 09:13 43.47565 7.29818 3937 ft 272 kts 21°
2026-05-06 09:13 43.49290 7.30871 3593 ft 271 kts 21°
2026-05-06 09:13 43.50987 7.31905 3243 ft 270 kts 21°
2026-05-06 09:14 43.52695 7.32950 3019 ft 267 kts 21°
2026-05-06 09:14 43.54400 7.33995 3007 ft 268 kts 21°
2026-05-06 09:14 43.56059 7.35016 3003 ft 253 kts 21°
2026-05-06 09:14 43.57647 7.35996 3010 ft 252 kts 21°
2026-05-06 09:15 43.59257 7.36986 2972 ft 253 kts 20°
2026-05-06 09:15 43.60862 7.37962 2667 ft 251 kts 19°
2026-05-06 09:15 43.62535 7.38232 2518 ft 237 kts 348°
2026-05-06 09:15 43.63954 7.37322 2394 ft 218 kts 316°
2026-05-06 09:16 43.64860 7.35768 2283 ft 199 kts 303°
2026-05-06 09:16 43.65618 7.34282 2173 ft 181 kts 301°
2026-05-06 09:16 43.66312 7.32928 2079 ft 165 kts 301°
2026-05-06 09:16 43.66948 7.31641 1822 ft 157 kts 301°
2026-05-06 09:17 43.67562 7.30452 1527 ft 147 kts 302°
2026-05-06 09:17 43.68151 7.29327 1271 ft 142 kts 302°
2026-05-06 09:17 43.68683 7.28195 1021 ft 140 kts 295°
2026-05-06 09:17 43.68884 7.26884 856 ft 142 kts 264°
2026-05-06 09:18 43.68621 7.25577 617 ft 139 kts 246°
2026-05-06 09:18 43.68123 7.24456 434 ft 136 kts 230°
2026-05-06 09:18 43.67445 7.23526 244 ft 136 kts 223°
2026-05-06 09:18 43.66781 7.22602 51 ft 136 kts 224°
2026-05-06 09:19 43.66154 7.21742 21 ft 111 kts 225°
2026-05-06 09:19 43.65729 7.21157 23 ft 56 kts 224°
2026-05-06 09:19 43.65629 7.20987 23 ft 17 kts 260°
2026-05-06 09:19 43.65685 7.20891 21 ft 6 kts 347°
2026-05-06 09:20 43.65719 7.20881 21 ft 6 kts 349°
2026-05-06 09:20 43.65766 7.20870 23 ft 8 kts 351°
2026-05-06 09:20 43.65823 7.20858 21 ft 8 kts 351°
2026-05-06 09:20 43.65888 7.20843 24 ft 10 kts 351°
2026-05-06 09:21 43.65964 7.20826 21 ft 11 kts 351°
2026-05-06 09:21 43.66010 7.20816 21 ft 0 kts 351°
2026-05-06 09:21 43.66018 7.20814 21 ft 2 kts 351°
2026-05-06 09:21 43.66041 7.20809 21 ft 5 kts 351°
2026-05-06 09:22 43.66080 7.20801 21 ft 7 kts 351°
2026-05-06 09:22 43.66119 7.20788 21 ft 4 kts 329°
2026-05-06 09:22 43.66126 7.20757 21 ft 4 kts 270°
2026-05-06 09:22 43.66122 7.20709 21 ft 6 kts 261°
2026-05-06 09:23 43.66120 7.20693 21 ft 0 kts 261°